KLM322 FAPE-FACT

Flight info

Callsign KLM322
Flight time 1h 4m
Altitude 34000
Route OKRAV UQ49 ESRUK UQ51 GETEN GETEN1B
Aircraft B738/M-SDE2E3FGHIRWXY/LB1

Departure

Time 2026-04-24 16:02
Airport Chief Dawid Stuurman International Airport (FAPE)

Arrival

Time 2026-04-24 17:06
Airport Cape Town International Airport (FACT)
Time Latitude Longitude Altitude Speed Heading
2026-04-24 15:45 -33.98456 25.61220 238 ft 0 kts 329°
2026-04-24 15:53 -33.98458 25.61221 237 ft 3 kts 329°
2026-04-24 15:53 -33.98478 25.61236 237 ft 3 kts 328°
2026-04-24 15:54 -33.98497 25.61251 237 ft 3 kts 299°
2026-04-24 15:54 -33.98495 25.61274 237 ft 4 kts 236°
2026-04-24 15:54 -33.98485 25.61293 237 ft 0 kts 238°
2026-04-24 15:57 -33.98485 25.61292 237 ft 2 kts 238°
2026-04-24 15:58 -33.98509 25.61245 237 ft 10 kts 238°
2026-04-24 15:58 -33.98551 25.61164 237 ft 13 kts 238°
2026-04-24 15:58 -33.98610 25.61054 237 ft 19 kts 237°
2026-04-24 15:58 -33.98687 25.60906 237 ft 22 kts 238°
2026-04-24 15:59 -33.98776 25.60741 237 ft 24 kts 237°
2026-04-24 15:59 -33.98869 25.60568 237 ft 25 kts 237°
2026-04-24 15:59 -33.98964 25.60393 237 ft 25 kts 236°
2026-04-24 15:59 -33.99059 25.60217 237 ft 25 kts 237°
2026-04-24 16:00 -33.99155 25.60043 237 ft 25 kts 238°
2026-04-24 16:00 -33.99234 25.59931 237 ft 15 kts 194°
2026-04-24 16:00 -33.99288 25.59946 237 ft 0 kts 150°
2026-04-24 16:00 -33.99314 25.59965 237 ft 16 kts 147°
2026-04-24 16:01 -33.99353 25.60056 237 ft 9 kts 60°
2026-04-24 16:01 -33.99239 25.60277 238 ft 65 kts 58°
2026-04-24 16:01 -33.98884 25.60965 238 ft 127 kts 60°
2026-04-24 16:01 -33.98371 25.62006 548 ft 154 kts 59°
2026-04-24 16:02 -33.97864 25.63186 1224 ft 166 kts 63°
2026-04-24 16:02 -33.97445 25.64560 2021 ft 186 kts 83°
2026-04-24 16:02 -33.97870 25.66063 2924 ft 204 kts 129°
2026-04-24 16:02 -33.99085 25.67062 3816 ft 222 kts 152°
2026-04-24 16:03 -34.00623 25.67542 4647 ft 241 kts 183°
2026-04-24 16:03 -34.02224 25.66809 5402 ft 259 kts 221°
2026-04-24 16:03 -34.03253 25.64981 6101 ft 273 kts 257°
2026-04-24 16:03 -34.03490 25.62705 7147 ft 276 kts 270°
2026-04-24 16:04 -34.03540 25.60390 8205 ft 280 kts 271°
2026-04-24 16:04 -34.03567 25.58007 9223 ft 285 kts 272°
2026-04-24 16:04 -34.03592 25.55603 10240 ft 287 kts 272°
2026-04-24 16:04 -34.03607 25.53185 11220 ft 289 kts 272°
2026-04-24 16:05 -34.03603 25.48325 13097 ft 293 kts 272°
2026-04-24 16:05 -34.03589 25.45860 13917 ft 296 kts 272°
2026-04-24 16:06 -34.03546 25.40816 15429 ft 305 kts 272°
2026-04-24 16:06 -34.03517 25.38243 16133 ft 309 kts 272°
2026-04-24 16:06 -34.03415 25.32996 17487 ft 316 kts 274°
2026-04-24 16:07 -34.03302 25.30367 18127 ft 320 kts 274°
2026-04-24 16:07 -34.03172 25.27582 18468 ft 336 kts 274°
2026-04-24 16:07 -34.02894 25.21714 19105 ft 365 kts 274°
2026-04-24 16:08 -34.02746 25.18594 19412 ft 380 kts 274°
2026-04-24 16:08 -34.02433 25.12016 19914 ft 410 kts 274°
2026-04-24 16:09 -34.02094 25.05000 20787 ft 424 kts 274°
2026-04-24 16:09 -34.01924 25.01452 21482 ft 423 kts 274°
2026-04-24 16:09 -34.01758 24.97917 22188 ft 422 kts 274°
2026-04-24 16:09 -34.01597 24.94387 22879 ft 420 kts 274°
2026-04-24 16:10 -34.01133 24.83892 24460 ft 416 kts 274°
2026-04-24 16:11 -34.00818 24.76934 25190 ft 415 kts 274°
2026-04-24 16:11 -34.00631 24.73473 25551 ft 414 kts 275°
2026-04-24 16:11 -34.00418 24.70022 25903 ft 413 kts 275°
2026-04-24 16:12 -33.99966 24.63148 26595 ft 410 kts 275°
2026-04-24 16:12 -33.99541 24.59717 26849 ft 417 kts 281°
2026-04-24 16:12 -33.99093 24.52691 27736 ft 425 kts 269°
2026-04-24 16:13 -33.99227 24.49115 28161 ft 429 kts 267°
2026-04-24 16:13 -33.99522 24.41889 28991 ft 434 kts 269°
2026-04-24 16:14 -33.99551 24.34570 29736 ft 439 kts 270°
2026-04-24 16:14 -33.99574 24.30879 30109 ft 441 kts 269°
2026-04-24 16:14 -33.99700 24.23472 30959 ft 441 kts 269°
2026-04-24 16:15 -33.99742 24.21031 31253 ft 440 kts 269°
2026-04-24 16:15 -33.99843 24.12425 32212 ft 439 kts 269°
2026-04-24 16:16 -33.99924 24.05097 32991 ft 437 kts 269°
2026-04-24 16:16 -33.99969 24.01434 33353 ft 436 kts 269°
2026-04-24 16:17 -34.00090 23.90458 33950 ft 439 kts 269°
2026-04-24 16:17 -34.00163 23.83118 33950 ft 436 kts 269°
2026-04-24 16:18 -34.00299 23.68538 33947 ft 434 kts 269°
2026-04-24 16:19 -34.00388 23.57614 33944 ft 435 kts 269°
2026-04-24 16:20 -34.00468 23.46666 33939 ft 436 kts 269°
2026-04-24 16:20 -34.00538 23.35752 33934 ft 436 kts 269°
2026-04-24 16:21 -34.00599 23.24787 33931 ft 435 kts 268°
2026-04-24 16:22 -34.00634 23.17485 33931 ft 436 kts 268°
2026-04-24 16:22 -34.00674 23.07703 33929 ft 436 kts 268°
2026-04-24 16:23 -34.00699 23.00381 33928 ft 437 kts 268°
2026-04-24 16:24 -34.00729 22.89463 33927 ft 437 kts 268°
2026-04-24 16:24 -34.00743 22.82132 33928 ft 437 kts 268°
2026-04-24 16:25 -34.00753 22.74823 33927 ft 436 kts 268°
2026-04-24 16:25 -34.00758 22.67497 33927 ft 437 kts 268°
2026-04-24 16:26 -34.00758 22.56524 33926 ft 436 kts 268°
2026-04-24 16:27 -34.00749 22.45553 33925 ft 436 kts 268°
2026-04-24 16:27 -34.00736 22.38232 33926 ft 436 kts 268°
2026-04-24 16:28 -34.00711 22.30918 33926 ft 436 kts 268°
2026-04-24 16:28 -34.00654 22.21430 33926 ft 436 kts 268°
2026-04-24 16:30 -34.00566 22.06645 33926 ft 436 kts 268°
2026-04-24 16:30 -34.00514 21.99341 33927 ft 436 kts 268°
2026-04-24 16:31 -34.00459 21.92071 33926 ft 436 kts 268°
2026-04-24 16:31 -34.00399 21.84768 33927 ft 436 kts 268°
2026-04-24 16:32 -34.00334 21.77458 33926 ft 436 kts 268°
2026-04-24 16:32 -34.00265 21.70158 33926 ft 435 kts 268°
2026-04-24 16:33 -34.00193 21.62862 33926 ft 435 kts 268°
2026-04-24 16:33 -34.00115 21.55558 33927 ft 435 kts 268°
2026-04-24 16:34 -34.00034 21.48264 33928 ft 435 kts 269°
2026-04-24 16:34 -33.99947 21.40989 33926 ft 434 kts 269°
2026-04-24 16:35 -33.99857 21.33719 33924 ft 433 kts 269°
2026-04-24 16:35 -33.99763 21.26459 33924 ft 433 kts 269°
2026-04-24 16:36 -33.99662 21.19207 33922 ft 432 kts 269°
2026-04-24 16:36 -33.99558 21.11957 33920 ft 432 kts 269°
2026-04-24 16:37 -33.99451 21.04731 33919 ft 430 kts 269°
2026-04-24 16:37 -33.99339 20.97519 33918 ft 430 kts 269°
2026-04-24 16:38 -33.99223 20.90314 33920 ft 430 kts 269°
2026-04-24 16:38 -33.99103 20.83114 33922 ft 429 kts 269°
2026-04-24 16:39 -33.98979 20.75922 33922 ft 429 kts 269°
2026-04-24 16:39 -33.98851 20.68785 33921 ft 428 kts 269°
2026-04-24 16:40 -33.98722 20.61624 33921 ft 427 kts 269°
2026-04-24 16:40 -33.98588 20.54470 33920 ft 427 kts 269°
2026-04-24 16:41 -33.98448 20.47309 33919 ft 427 kts 269°
2026-04-24 16:41 -33.98306 20.40168 33917 ft 426 kts 269°
2026-04-24 16:42 -33.98159 20.33029 33916 ft 426 kts 269°
2026-04-24 16:42 -33.98008 20.25868 33526 ft 431 kts 269°
2026-04-24 16:43 -33.97931 20.22252 32720 ft 432 kts 269°
2026-04-24 16:43 -33.97851 20.18622 31927 ft 434 kts 270°
2026-04-24 16:43 -33.97770 20.14983 31123 ft 435 kts 269°
2026-04-24 16:43 -33.97688 20.11335 30315 ft 436 kts 269°
2026-04-24 16:44 -33.97605 20.07675 29494 ft 437 kts 269°
2026-04-24 16:44 -33.97520 20.04015 28669 ft 438 kts 269°
2026-04-24 16:44 -33.97435 20.00346 27833 ft 438 kts 269°
2026-04-24 16:44 -33.97348 19.96672 26991 ft 439 kts 269°
2026-04-24 16:45 -33.97260 19.92994 26289 ft 437 kts 269°
2026-04-24 16:45 -33.97170 19.89357 25676 ft 433 kts 269°
2026-04-24 16:45 -33.97080 19.85742 25083 ft 429 kts 269°
2026-04-24 16:45 -33.97120 19.82178 24322 ft 423 kts 261°
2026-04-24 16:46 -33.97837 19.78772 23152 ft 418 kts 246°
2026-04-24 16:46 -33.99116 19.75652 21951 ft 416 kts 242°
2026-04-24 16:46 -34.00464 19.72563 20731 ft 415 kts 241°
2026-04-24 16:46 -34.01810 19.69485 19513 ft 414 kts 242°
2026-04-24 16:47 -34.03104 19.66491 18324 ft 412 kts 242°
2026-04-24 16:47 -34.04424 19.63387 17091 ft 410 kts 244°
2026-04-24 16:47 -34.05322 19.60142 15871 ft 408 kts 260°
2026-04-24 16:47 -34.05399 19.56745 14957 ft 398 kts 276°
2026-04-24 16:48 -34.05120 19.53496 14423 ft 379 kts 276°
2026-04-24 16:48 -34.04884 19.50403 13962 ft 361 kts 276°
2026-04-24 16:48 -34.04656 19.47460 13564 ft 344 kts 276°
2026-04-24 16:48 -34.04424 19.44669 13186 ft 326 kts 277°
2026-04-24 16:49 -34.04191 19.42005 12667 ft 314 kts 277°
2026-04-24 16:49 -34.03963 19.39409 12000 ft 309 kts 277°
2026-04-24 16:49 -34.03741 19.36852 11288 ft 305 kts 277°
2026-04-24 16:49 -34.03523 19.34305 10764 ft 305 kts 277°
2026-04-24 16:50 -34.03376 19.32587 10409 ft 305 kts 277°
2026-04-24 16:50 -34.03086 19.29223 9716 ft 304 kts 277°
2026-04-24 16:50 -34.02867 19.26691 9199 ft 303 kts 277°
2026-04-24 16:50 -34.02647 19.24165 8695 ft 302 kts 277°
2026-04-24 16:51 -34.02429 19.21653 8214 ft 300 kts 277°
2026-04-24 16:51 -34.02212 19.19154 7787 ft 297 kts 277°
2026-04-24 16:51 -34.01998 19.16693 7378 ft 294 kts 277°
2026-04-24 16:51 -34.01793 19.14337 7524 ft 274 kts 277°
2026-04-24 16:52 -34.01592 19.12051 7616 ft 278 kts 278°
2026-04-24 16:52 -34.01386 19.09725 7650 ft 279 kts 278°
2026-04-24 16:52 -34.01181 19.07405 7665 ft 279 kts 277°
2026-04-24 16:52 -34.00763 19.05134 7669 ft 277 kts 294°
2026-04-24 16:53 -34.00017 19.02996 7674 ft 277 kts 295°
2026-04-24 16:53 -33.99249 19.00863 7668 ft 277 kts 295°
2026-04-24 16:53 -33.98469 18.98739 7686 ft 277 kts 296°
2026-04-24 16:53 -33.97685 18.96616 7681 ft 277 kts 296°
2026-04-24 16:54 -33.96906 18.94497 7674 ft 276 kts 295°
2026-04-24 16:54 -33.96129 18.92378 7680 ft 277 kts 295°
2026-04-24 16:54 -33.95352 18.90254 7683 ft 277 kts 295°
2026-04-24 16:54 -33.94539 18.88150 7668 ft 276 kts 303°
2026-04-24 16:55 -33.93346 18.86368 7681 ft 274 kts 314°
2026-04-24 16:55 -33.91988 18.84740 7685 ft 274 kts 319°
2026-04-24 16:55 -33.90550 18.83241 7699 ft 273 kts 321°
2026-04-24 16:55 -33.89087 18.81789 7691 ft 272 kts 321°
2026-04-24 16:56 -33.87622 18.80345 7680 ft 272 kts 321°
2026-04-24 16:56 -33.86372 18.78652 7676 ft 274 kts 301°
2026-04-24 16:56 -33.85409 18.76737 7661 ft 266 kts 308°
2026-04-24 16:56 -33.84370 18.74939 7613 ft 251 kts 304°
2026-04-24 16:57 -33.83469 18.73232 7569 ft 238 kts 304°
2026-04-24 16:57 -33.82610 18.71576 7389 ft 231 kts 304°
2026-04-24 16:57 -33.81766 18.69942 7127 ft 229 kts 304°
2026-04-24 16:57 -33.80931 18.68319 6838 ft 228 kts 304°
2026-04-24 16:58 -33.80146 18.66668 6537 ft 227 kts 300°
2026-04-24 16:58 -33.79428 18.64983 6232 ft 226 kts 299°
2026-04-24 16:58 -33.78730 18.63312 5940 ft 225 kts 299°
2026-04-24 16:58 -33.78023 18.61611 5671 ft 222 kts 299°
2026-04-24 16:59 -33.77351 18.59979 5506 ft 215 kts 297°
2026-04-24 16:59 -33.76700 18.58371 5223 ft 213 kts 298°
2026-04-24 16:59 -33.75616 18.55711 4745 ft 213 kts 297°
2026-04-24 17:00 -33.74880 18.53568 4465 ft 205 kts 276°
2026-04-24 17:00 -33.76050 18.51322 3910 ft 206 kts 199°
2026-04-24 17:00 -33.77445 18.51390 3551 ft 205 kts 152°
2026-04-24 17:01 -33.79358 18.53562 3377 ft 176 kts 135°
2026-04-24 17:01 -33.80260 18.54524 3142 ft 172 kts 146°
2026-04-24 17:02 -33.82417 18.55637 3051 ft 171 kts 162°
2026-04-24 17:02 -33.83578 18.56049 2848 ft 177 kts 164°
2026-04-24 17:02 -33.84762 18.56419 2587 ft 175 kts 165°
2026-04-24 17:02 -33.85919 18.56797 2364 ft 169 kts 165°
2026-04-24 17:03 -33.88056 18.57489 1901 ft 150 kts 166°
2026-04-24 17:03 -33.89050 18.57805 1719 ft 146 kts 165°
2026-04-24 17:03 -33.90010 18.58110 1496 ft 137 kts 166°
2026-04-24 17:04 -33.90905 18.58394 1273 ft 130 kts 166°
2026-04-24 17:04 -33.92654 18.58948 929 ft 130 kts 166°
2026-04-24 17:04 -33.93524 18.59224 744 ft 129 kts 166°
2026-04-24 17:05 -33.94378 18.59495 564 ft 128 kts 166°
2026-04-24 17:05 -33.95251 18.59772 382 ft 128 kts 166°
2026-04-24 17:05 -33.96913 18.60300 160 ft 103 kts 165°
2026-04-24 17:06 -33.97430 18.60470 160 ft 62 kts 166°
2026-04-24 17:06 -33.97786 18.60487 159 ft 13 kts 287°
2026-04-24 17:06 -33.97758 18.60380 159 ft 12 kts 286°
2026-04-24 17:07 -33.97735 18.60285 159 ft 13 kts 286°
2026-04-24 17:07 -33.97677 18.60181 159 ft 17 kts 337°
2026-04-24 17:07 -33.97436 18.60068 159 ft 20 kts 344°
2026-04-24 17:08 -33.97147 18.59976 159 ft 23 kts 346°
2026-04-24 17:08 -33.97011 18.59943 159 ft 13 kts 344°
2026-04-24 17:08 -33.96944 18.59915 159 ft 8 kts 313°
2026-04-24 17:09 -33.96952 18.59824 159 ft 1 kts 255°